Tracking 19638 objects as of 20-May-2019
HD Live streaming from Space Station
objects crossing your sky now

THORAD DELTA 1 DEB

Track THORAD DELTA 1 DEB now!
10-day predictions


NORAD ID: 42625
Int'l Code: 1974-089GS
Perigee: 1,494.0 km
Apogee: 1,504.7 km
Inclination: 101.7 °
Period: 115.8 minutes
Semi major axis: 7870 km
RCS: Unknown
Launch date: November 15, 1974
Source: United States (US)
Launch site: AIR FORCE WESTERN TEST RANGE (AFWTR)

Note: This is SATELLITE DEBRIS
aabbcc
Your satellite tracking list
Your tracking list is empty




NASA's NSSDC Master Catalog

Two Line Element Set (TLE):
1 42625U 74089GS  19129.44435725  .00000010  00000-0  38523-3 0  9998
2 42625 101.7232 114.7704 0006790  69.9857  85.6950 12.43411800224978
Source of the keplerian elements: AFSPC